Location: Poughquag
(41.6090°N, 73.6820°W)
Time: 12:50:33
(UTC-04:00)

A-11 Canister half - Pass Details

Date: 06 June 2020
Orbit: 1527 x 1682 km, 47.3° (Epoch: 06 July)

Event Time Altitude Azimuth Distance (km) Brightness Sun altitude
Rises 10:27:52 0° 288° (WNW) 4,684 11.2 54.2°
Reaches altitude 10° 10:30:56 10° 291° (WNW) 3,708 10.8 54.8°
Maximum altitude 10:40:17 70° 15° (NNE) 1,640 10.1 56.4°
Drops below altitude 10° 10:49:54 10° 99° (E) 3,803 11.7 58.0°
Sets 10:53:05 0° 102° (ESE) 4,809 12.1 58.6°
